Regional Weather Roundup
Issued by NWS Kansas City/Pleasant Hill, MO

Home | Current Version | Previous Version | Graphics & Text | Print | Product List | Glossary Off
Versions: 1 2 3 4 5 6 7 8 9 10 11 12 13 14 15 16 17 18 19 20 21 22 23 24 25 26 27 28 29 30 31 32 33 34 35 36 37 38 39 40 41 42 43 44 45 46 47 48 49 50

000
ASUS43 KEAX 292110
RWREAX

WEATHER ROUNDUP FOR EASTERN KANSAS AND NORTHWEST MISSOURI
NATIONAL WEATHER SERVICE KANSAS CITY/PLEASANT HILL MO
400 PM CDT FRI APR 29 2016

KSZ040-057-103>105-MOZ028-029-037-043-292200-
...KANSAS CITY METROPOLITAN AREA...

CITY           SKY/WX    TMP DP  RH WIND       PRES   REMARKS
K.C. INTL      CLOUDY    54  47  77 E9        29.95S
K.C. DOWNTOWN  CLOUDY    56  47  71 E14G24    29.93F
LEES SUMMIT    CLOUDY    55  48  77 E18G24    29.92F
OLATHE - IXD   LGT RAIN  56  49  77 NE13G20   29.91F
OLATHE - OJC   CLOUDY    54  48  80 NE14      29.91S
LAWRENCE       LGT RAIN  54  49  83 E12       29.91F

$$

MOZ001>008-011>017-020>025-030>033-038>040-044>046-053-054-292200-
...NORTHERN AND CENTRAL MISSOURI...

CITY           SKY/WX    TMP DP  RH WIND       PRES   REMARKS
ST. JOSEPH     CLOUDY    54  46  74 NE13      29.96F
MOSBY          CLOUDY    55  46  71 NE13G18   29.93F
WARRENSBURG    CLOUDY    57  50  77 NE15      29.90F
WHITEMAN AFB   PTSUNNY   60  53  78 NE10G23   29.89F
CLINTON        CLOUDY    64  54  68 E15       29.88F
SEDALIA        CLOUDY    62  52  69 NE12G22   29.94F
WARSAW         NOT AVBL
CHILLICOTHE      N/A     57  48  72 E9        29.98F
KIRKSVILLE     CLOUDY    53  45  74 E10       30.04

$$

MOZ041-047>049-056>058-063>065-088>090-097-292200-
...EASTERN AND SOUTHERN MISSOURI...

CITY           SKY/WX    TMP DP  RH WIND       PRES   REMARKS
ST. LOUIS INTL CLOUDY    64  50  60 NE6       30.01F
SPIRIT OF STL  CLOUDY    63  51  65 E6        29.99F
COLUMBIA       CLOUDY    63  52  67 E9        29.94F
JEFFERSON CITY CLOUDY    63  50  62 E10       29.94F
ROLLA          CLOUDY    61  51  70 E16       29.92F
OSAGE BEACH    CLOUDY    61  46  59 E12       29.93F
SPRINGFIELD    CLOUDY    63  54  72 E20G26    29.82F
BRANSON        FOG       57  57 100 E18       29.84F VSB 1
JOPLIN         CLOUDY    64  56  75 E15G28    29.75F
WEST PLAINS    CLOUDY    59  54  83 E12       29.90F

$$

IAZ060-094-KSZ022-034>040-054-083-096-NEZ052-066-093-292200-
...KANSAS...SOUTHEAST NEBRASKA AND IOWA...

CITY           SKY/WX    TMP DP  RH WIND       PRES   REMARKS
TOPEKA         LGT RAIN  53  49  86 NE13      29.89F
MANHATTAN      HVY RAIN  48  44  86 N7        29.96R FOG
EMPORIA        LGT RAIN  52  50  93 N15       29.86R
CHANUTE        LGT RAIN  61  53  75 NE14G24   29.74F
WICHITA        CLOUDY    52  48  86 NE23G32   29.77F
OMAHA          CLOUDY    49  42  77 NE10      30.04F
LINCOLN        CLOUDY    48  40  73 E14       30.05S
FALLS CITY     CLOUDY    53  46  77 NE10      29.98F
LAMONI         CLOUDY    51  44  77 E8        30.02F
DES MOINES     CLOUDY    51  41  68 NE10      30.05F

$$




USA.gov is the U.S. government's official web portal to all federal, state and local government web resources and services.